Weather History for KCMI - November, 2010

Change the Weather History Date:

Wednesday, November 17, 2010

  Actual Average Record
Temperature  
Mean Temperature 40 °F 41 °F  
Max Temperature 51 °F 50 °F 73 °F (2001)
Min Temperature 28 °F 32 °F 12 °F (2014)
Degree Days  
Heating Degree Days 25 24  
Month to date heating degree days 318 344  
Since 1 July heating degree days 648 805  
Cooling Degree Days 0 0  
Month to date cooling degree days 0 0  
Year to date cooling degree days 1334 944  
Moisture  
Dew Point 31 °F    
Average Humidity 75    
Maximum Humidity 100    
Minimum Humidity 50    
Precipitation  
Precipitation 0.00 in 0.12 in 0.36 in (2003)
Month to date precipitation 0.07 1.98  
Year to date precipitation 28.42 35.68  
Sea Level Pressure  
Sea Level Pressure 30.07 in    
Wind  
Wind Speed 9 mph (WNW)    
Max Wind Speed 18 mph    
Max Gust Speed 23 mph    
Visibility 9 miles    
Events      
T = Trace of Precipitation, MM = Missing Value Source: NWS Daily Summary

Daily Weather History Graph

Daily Weather History Graph

Search for Another Location

Airport or City:

Trip Planner

Search our weather history database for the weather conditions in past years. The results will help you decide how hot, cold, wet, or windy it might be!

Date:

Astronomy

Nov. 17, 2010 Rise Set
Actual Time 6:40 AM CST 4:35 PM CST
Civil Twilight 6:11 AM CST 5:04 PM CST
Nautical Twilight 5:38 AM CST 5:37 PM CST
Astronomical Twilight 5:06 AM CST 6:09 PM CST
Moon 2:07 PM CST (11/17) 2:39 AM CST (11/17)
Length of Visible Light 10h 52m
Length of Day
9h 54m
Waxing Gibbous, 85% of the Moon is Illuminated
Nov 17
Waxing Gibbous
Nov 21
Full
Nov 28
Last Quarter
Dec 5
New
Dec 13
First Quarter

Hourly Weather History & Observations

Time (CST) Temp. Windchill Dew Point Humidity Pressure Visibility Wind Dir Wind Speed Gust Speed Precip Events Conditions
12:53 AM 32.0 °F 24.8 °F 24.1 °F 73% 29.81 in 10.0 mi SW 8.1 mph - N/A   Clear
1:53 AM 32.0 °F 26.4 °F 24.1 °F 73% 29.83 in 10.0 mi WSW 5.8 mph - N/A   Clear
2:53 AM 30.9 °F 23.5 °F 25.0 °F 79% 29.86 in 10.0 mi West 8.1 mph - N/A   Clear
3:53 AM 30.9 °F 22.8 °F 28.0 °F 89% 29.88 in 8.0 mi West 9.2 mph - N/A   Clear
4:53 AM 30.9 °F 23.5 °F 30.0 °F 96% 29.91 in 5.0 mi West 8.1 mph - N/A   Clear
5:53 AM 28.9 °F 21.1 °F 28.0 °F 96% 29.94 in 4.0 mi WSW 8.1 mph - N/A   Clear
6:53 AM 28.0 °F 20.0 °F 27.0 °F 96% 29.98 in 3.0 mi WSW 8.1 mph - N/A   Clear
7:53 AM 33.1 °F 27.7 °F 30.9 °F 92% 30.02 in 5.0 mi West 5.8 mph - N/A   Clear
8:53 AM 39.0 °F 31.8 °F 35.1 °F 86% 30.05 in 8.0 mi West 11.5 mph - N/A   Clear
9:53 AM 44.1 °F 37.4 °F 36.0 °F 73% 30.08 in 10.0 mi West 13.8 mph - N/A   Partly Cloudy
10:53 AM 48.0 °F - 35.1 °F 61% 30.09 in 10.0 mi West 15.0 mph - N/A   Scattered Clouds
11:53 AM 48.9 °F - 34.0 °F 56% 30.09 in 10.0 mi West 16.1 mph - N/A   Scattered Clouds
12:53 PM 51.1 °F - 34.0 °F 52% 30.09 in 10.0 mi WNW 17.3 mph 21.9 mph N/A   Scattered Clouds
1:53 PM 50.0 °F - 34.0 °F 54% 30.09 in 10.0 mi WNW 13.8 mph 23.0 mph N/A   Partly Cloudy
2:53 PM 48.0 °F - 33.1 °F 56% 30.11 in 10.0 mi WNW 13.8 mph - N/A   Clear
3:53 PM 43.0 °F 36.0 °F 34.0 °F 71% 30.13 in 10.0 mi NW 13.8 mph - N/A   Clear
4:53 PM 37.0 °F 33.3 °F 30.9 °F 79% 30.16 in 10.0 mi NNW 4.6 mph - N/A   Partly Cloudy
5:14 PM 39.2 °F 35.0 °F 32.0 °F 75% 30.14 in 10.0 mi NW 5.8 mph - N/A   Mostly Cloudy
5:53 PM 39.9 °F 36.7 °F 33.1 °F 77% 30.17 in 10.0 mi NNW 4.6 mph - N/A   Overcast
6:53 PM 41.0 °F - 33.1 °F 73% 30.19 in 10.0 mi Calm Calm - N/A   Overcast
7:53 PM 39.9 °F 36.7 °F 32.0 °F 73% 30.19 in 10.0 mi WSW 4.6 mph - N/A   Scattered Clouds
8:53 PM 37.0 °F 32.4 °F 30.9 °F 79% 30.20 in 8.0 mi West 5.8 mph - N/A   Clear
9:53 PM 36.0 °F 32.1 °F 30.9 °F 82% 30.21 in 7.0 mi NW 4.6 mph - N/A   Clear
10:53 PM 39.0 °F 34.8 °F 34.0 °F 82% 30.20 in 8.0 mi NNW 5.8 mph - N/A   Mostly Cloudy
11:53 PM 39.0 °F 34.8 °F 34.0 °F 82% 30.21 in 8.0 mi NW 5.8 mph - N/A   Overcast